Wind_Speed
14 13 13 13 12 11 10 11 11 13 15 16 16 15 15 15 13 12 10 8 6 4 5 7 6 5 7 8 10 10 10 11 10 10 11 12 12 10 9 10 9 9 8 8 7 7 7 7 7 7 7 8 8 8 8 8 9 9 9 9 9 9 9 8 8 9 9 10 11 10 11 11 11 11 11 11 11 10 10 10 10 10 9 10 12
14 13 13 12 12 11 10 11 12 13 14 15 15 15 15 14 12 11 10 8 6 6 6 8 7 7 7 9 10 11 11 11 10 10 11 12 12 9 9 9 9 9 8 7 7 7 6 6 7 7 7 7 7 8 7 8 9 9 9 9 9 9 8 7 8 9 10 10 10 10 11 10 10 11 11 12 11 11 12 12 12 12 11 10 11
14 14 13 13 12 12 11 12 13 13 14 14 15 15 15 13 11 10 9 7 5 6 8 8 7 8 8 9 11 12 12 11 10 10 11 12 11 9 10 11 10 9 8 7 6 6 6 6 6 6 7 7 7 7 6 7 8 8 8 8 8 8 8 7 8 10 10 9 10 10 10 10 10 10 11 12 12 13 13 13 13 13 13 12 13
14 14 14 14 14 13 12 12 13 13 14 14 14 15 14 11 10 9 8 7 6 6 8 7 7 8 9 10 12 13 13 12 11 11 11 12 11 9 11 12 10 8 8 7 7 6 5 5 5 6 7 7 7 7 6 7 7 8 7 7 8 8 8 7 7 9 10 9 9 9 10 9 9 10 11 12 12 13 13 13 14 14 15 15 15
15 15 15 15 15 13 12 11 11 13 13 13 13 13 13 11 10 10 8 8 8 8 9 8 8 8 9 12 13 13 13 12 11 11 11 11 11 11 13 13 10 8 9 9 8 7 6 5 5 6 6 6 6 6 6 7 7 7 6 6 8 8 7 7 7 8 9 9 9 10 10 10 10 10 11 12 12 12 13 13 13 14 15 16 16
16 16 15 15 14 13 12 10 11 13 13 13 12 13 12 11 11 11 9 9 9 9 10 10 9 8 10 13 14 14 13 12 11 11 11 11 10 12 14 12 10 9 9 9 8 7 6 6 6 6 6 6 6 5 6 6 6 6 5 5 8 7 7 7 8 8 8 9 9 9 9 10 11 10 11 11 11 12 12 13 13 13 14 15 16
18 17 17 15 14 13 12 11 11 12 14 14 13 13 12 12 12 12 11 10 10 11 11 10 10 10 11 12 14 14 13 12 11 11 10 10 10 12 13 12 10 9 8 7 6 6 7 6 5 6 7 7 6 6 6 5 5 6 5 6 7 6 6 7 8 8 8 8 8 9 9 9 10 10 10 11 10 11 12 12 12 12 13 14 14
19 18 18 15 13 13 14 14 13 13 14 14 13 13 13 14 13 11 12 13 12 12 11 10 11 11 11 12 14 14 13 12 11 11 10 9 10 11 12 12 11 9 7 6 4 3 7 8 6 7 8 9 8 6 5 5 5 6 6 6 6 6 6 6 8 8 7 8 8 9 9 9 9 9 10 10 10 10 11 11 11 12 12 13 13
20 19 18 16 14 14 16 17 16 16 15 13 12 13 15 15 13 11 12 13 14 13 12 11 11 12 13 12 13 13 12 12 11 11 10 9 10 10 11 12 12 9 8 7 4 3 7 9 7 7 8 9 8 6 5 6 6 7 7 7 6 6 6 6 7 7 7 8 8 9 9 9 9 9 9 10 10 10 10 10 11 11 11 12 12
22 19 18 17 15 16 18 18 18 18 17 14 12 14 14 13 13 13 13 13 15 15 14 12 11 13 15 13 11 11 11 12 11 10 9 9 9 10 11 11 11 10 8 6 4 3 6 8 8 7 7 7 7 7 6 5 7 8 8 8 7 7 6 6 6 6 7 8 9 10 10 10 10 9 9 9 9 10 10 10 10 10 11 11 12
23 21 19 18 17 17 18 18 18 18 18 15 13 14 13 13 14 15 15 14 14 16 17 15 14 14 14 12 10 9 10 11 10 10 9 9 9 9 10 9 9 8 7 6 4 4 5 8 9 8 7 6 5 6 5 5 5 6 7 7 7 7 8 7 6 7 7 7 10 12 11 10 9 9 9 10 11 11 12 12 12 12 13 13 14
23 21 20 19 18 17 18 18 18 18 18 16 15 14 14 15 16 17 17 15 15 16 17 18 17 16 14 12 9 8 8 9 9 9 9 9 9 9 9 9 8 7 6 5 4 4 5 7 8 8 7 5 3 4 4 5 6 6 6 5 5 6 7 8 8 8 9 10 12 13 9 7 8 8 9 11 13 13 13 13 13 13 13 13 13
22 21 20 20 19 18 18 18 17 18 17 16 15 14 14 15 17 18 17 18 18 17 18 20 19 15 14 12 9 8 7 8 8 8 10 11 10 9 9 9 8 6 6 5 4 3 4 5 7 7 6 5 3 3 3 3 4 6 6 6 6 6 6 7 7 8 10 11 12 12 9 7 8 9 11 13 13 13 12 11 11 11 10 10 10
21 20 20 19 19 19 19 18 18 17 16 16 15 14 15 16 18 19 18 19 20 19 21 19 15 13 12 10 8 7 4 4 4 4 6 8 9 8 7 8 9 7 6 6 4 4 3 4 5 6 6 4 3 2 3 3 4 5 5 5 6 7 7 7 7 7 9 10 10 10 9 7 8 10 11 12 11 9 9 9 9 8 7 7 8
20 18 18 18 19 19 19 18 18 18 17 17 16 15 16 16 18 20 19 19 19 20 20 16 15 17 12 5 3 3 2 1 2 2 3 3 5 5 5 7 9 8 8 7 5 4 4 4 4 4 4 4 3 4 4 4 5 5 4 5 7 7 7 7 7 7 7 8 8 8 7 6 7 8 8 8 7 6 5 6 6 5 4 6 6
19 18 17 18 19 18 18 18 19 19 18 18 18 18 18 18 19 20 20 19 18 18 17 15 19 18 9 3 1 1 1 2 3 2 1 2 2 3 4 7 8 8 8 7 6 5 5 5 4 4 4 3 3 4 4 5 5 5 4 4 5 6 7 6 6 7 6 6 6 6 5 4 5 5 6 5 4 2 2 3 4 4 5 5 4
17 17 17 18 19 18 17 17 18 19 19 20 20 19 19 20 21 21 21 19 19 19 17 14 18 19 12 6 3 1 1 3 4 2 1 3 3 3 5 7 9 9 9 8 6 6 7 6 5 5 5 4 3 3 3 4 4 4 4 4 4 5 6 7 5 5 6 5 3 3 3 3 4 5 4 3 2 2 3 4 6 6 6 6 4
17 16 16 17 18 17 17 17 17 19 20 21 21 19 19 20 21 21 20 19 19 21 19 15 17 17 13 9 4 2 6 8 5 0 1 4 4 3 4 6 9 9 9 8 7 7 8 7 6 6 5 4 3 2 2 2 2 2 3 3 3 2 4 5 5 5 5 4 2 3 4 4 5 5 4 4 5 6 6 6 6 5 5 4 3
17 16 15 16 17 17 16 16 18 19 20 21 21 20 20 20 21 21 19 19 19 22 22 18 18 18 13 9 2 2 11 13 6 3 2 3 5 5 5 5 7 7 8 9 8 8 8 7 7 6 6 5 4 2 2 2 1 1 2 3 4 5 7 8 8 7 6 5 5 5 6 6 5 5 6 6 7 6 6 5 5 4 4 3 3
17 16 15 15 16 16 16 17 18 20 20 21 21 19 20 20 21 21 20 20 18 20 23 21 20 19 15 11 5 5 14 14 11 9 4 1 4 5 6 7 6 6 7 9 9 8 8 8 7 7 6 6 4 3 2 1 2 3 4 5 7 9 10 11 11 9 7 7 7 7 7 8 7 7 6 6 5 4 4 4 4 4 4 4 4
16 16 15 16 16 15 16 18 19 19 19 19 19 19 20 20 21 22 20 19 17 18 22 23 22 21 16 11 6 11 15 11 11 12 6 3 3 3 5 6 6 7 7 9 9 8 8 7 7 6 6 6 4 2 1 3 5 6 7 8 8 9 9 9 10 9 9 8 8 8 8 8 7 6 5 4 4 4 4 4 4 5 5 5 5
16 16 16 16 16 15 17 19 19 19 19 19 20 20 21 20 19 20 20 19 18 18 21 22 22 21 17 12 11 14 12 7 11 12 8 5 3 3 6 6 5 7 9 9 9 8 8 7 6 6 5 5 4 3 4 6 7 8 8 7 7 7 6 7 8 9 10 9 8 8 8 7 6 5 5 5 4 4 5 5 6 5 5 5 5
16 16 16 16 17 17 18 19 19 19 18 18 21 22 21 20 18 18 19 19 19 19 20 21 20 20 17 13 13 15 13 11 15 17 12 7 5 5 7 7 7 8 8 9 9 8 8 7 7 5 4 5 5 6 7 8 8 8 7 5 5 5 4 5 7 9 10 10 10 9 8 6 5 5 5 5 6 6 5 5 5 4 4 4 4
17 17 17 17 18 18 18 18 19 18 17 17 20 21 21 20 19 18 18 19 20 19 21 21 20 21 19 14 13 14 16 16 18 21 17 14 12 8 7 8 6 5 7 8 7 7 8 8 6 4 3 5 7 8 9 9 9 8 6 5 4 4 4 5 6 7 8 9 9 8 8 7 6 6 6 6 6 5 5 4 4 4 4 4 4
18 18 19 19 20 19 18 19 19 18 17 17 18 19 20 20 19 18 18 18 19 19 20 20 19 21 20 16 14 15 17 16 17 20 18 16 16 11 8 8 5 4 6 7 6 6 7 7 5 4 4 5 8 9 9 8 8 7 6 6 5 5 5 5 5 6 6 7 7 8 7 7 7 7 7 6 5 4 4 4 4 4 5 5 5
20 20 19 19 19 19 17 17 18 18 18 17 17 18 19 18 18 18 18 17 18 18 18 18 18 19 20 18 15 16 17 15 15 19 18 18 19 16 12 7 5 6 5 6 7 6 6 8 6 4 5 6 8 8 8 8 8 8 7 6 6 6 5 5 4 4 5 5 5 6 5 6 6 6 6 5 4 4 4 4 4 4 4 4 4
21 20 20 19 19 18 17 17 17 18 18 18 18 18 17 17 17 17 17 16 16 17 17 17 17 18 19 17 15 16 17 14 14 18 19 18 20 23 20 10 4 4 4 4 7 7 7 9 9 7 6 7 8 8 8 8 8 8 8 7 6 6 5 4 4 4 4 5 5 5 5 4 5 5 5 5 5 5 4 4 4 3 3 2 2
20 20 20 19 19 18 17 17 17 18 18 17 17 18 18 17 17 17 17 16 16 16 17 17 17 17 17 16 15 16 17 15 14 16 18 18 20 25 26 18 10 4 2 3 5 6 8 10 10 10 10 9 9 10 9 9 9 8 8 7 5 5 5 5 5 5 5 6 6 6 6 5 5 5 5 5 5 5 4 4 3 3 3 2 2
20 21 21 20 19 19 18 18 17 17 17 17 17 18 18 17 18 18 17 16 15 15 15 16 17 17 16 16 15 15 17 17 15 16 18 18 20 25 26 23 17 9 4 3 4 7 10 12 12 11 12 13 11 11 11 9 10 9 7 7 5 5 6 6 6 6 6 6 6 6 6 6 6 5 5 5 5 5 5 4 4 4 3 3 3
21 22 21 20 20 19 19 18 17 17 17 17 17 17 18 17 17 17 16 16 15 14 14 15 15 16 16 16 15 15 16 16 16 18 19 19 21 25 24 21 17 13 10 6 5 10 13 13 14 12 12 15 14 12 12 11 10 9 7 7 7 7 7 7 7 7 6 6 6 6 6 5 5 5 5 5 5 5 5 5 5 5 4 4 3
24 24 21 21 21 20 19 19 18 18 17 17 17 17 18 18 17 16 16 16 15 14 14 14 15 15 15 15 15 14 14 14 15 17 19 19 20 24 24 19 15 13 15 12 5 10 16 14 14 13 11 14 15 14 13 12 11 10 8 8 8 8 9 9 8 8 7 6 6 5 5 5 5 4 4 5 5 5 5 5 5 4 4 4 3
26 24 23 22 22 21 20 20 20 19 17 16 16 17 17 17 16 16 16 17 16 15 14 14 15 15 15 15 15 14 13 13 15 16 18 18 20 23 24 21 15 11 15 15 6 6 15 15 14 14 11 12 15 15 15 14 12 11 10 10 10 10 11 10 9 9 8 7 6 6 5 4 4 4 5 5 5 5 5 4 4 4 3 3 3
25 24 24 23 22 22 20 20 20 19 18 17 16 17 17 17 17 16 17 17 16 14 14 14 14 15 15 14 14 14 14 14 14 15 17 18 19 22 23 22 18 12 13 16 8 5 11 14 14 15 12 12 15 16 16 15 14 13 12 12 12 12 12 12 11 10 9 9 8 8 7 6 6 6 6 6 6 6 5 5 5 4 4 3 3
25 25 24 23 22 21 20 19 20 19 18 17 16 17 17 16 17 17 17 17 16 15 14 14 15 15 15 15 14 14 14 14 13 13 16 17 18 21 22 23 22 17 14 15 12 9 11 13 15 16 14 13 16 17 17 17 15 14 14 13 14 14 14 14 13 12 12 12 11 11 10 9 9 9 9 9 9 9 8 8 8 7 7 6 6
27 26 24 23 22 22 20 19 19 19 17 17 17 17 17 16 16 17 17 17 16 16 15 15 15 16 15 15 14 14 14 14 13 13 15 17 18 19 21 23 24 22 18 17 15 13 13 15 17 18 16 15 16 18 18 18 16 15 15 14 15 16 17 17 17 16 15 15 14 14 13 13 12 12 13 13 13 13 12 12 11 11 10 10 10
28 26 24 24 23 22 22 20 19 19 18 17 17 17 16 16 16 17 17 16 16 16 16 15 15 16 16 16 15 14 14 15 14 13 13 15 18 20 22 23 25 25 23 22 19 16 16 17 18 19 18 16 16 17 18 18 18 17 17 17 17 17 18 19 20 19 18 18 18 17 16 16 16 16 16 17 17 17 16 16 15 14 14 13 13
29 27 25 25 25 23 21 20 20 20 19 18 18 17 16 16 16 16 16 15 15 15 15 14 15 15 15 15 15 14 13 14 15 13 11 14 16 18 20 23 25 25 25 26 24 20 19 19 19 19 18 17 17 17 18 19 19 19 19 19 19 19 19 21 22 22 21 21 21 21 20 20 20 20 21 21 21 21 20 20 19 18 17 17 16
29 28 28 27 26 24 21 21 21 20 19 19 17 16 16 16 15 15 15 15 14 14 14 14 14 15 15 14 14 15 14 14 14 12 11 13 15 16 18 20 23 23 23 25 26 24 22 21 19 18 19 19 19 18 18 19 20 21 22 21 21 21 21 22 23 23 23 23 23 23 23 23 23 24 24 25 25 25 24 24 23 23 22 21 20
31 29 29 28 26 24 23 22 20 20 20 19 17 16 15 15 16 17 17 16 15 14 14 14 14 16 16 13 11 13 13 13 13 12 12 15 18 18 18 19 20 19 17 19 23 24 23 20 18 18 19 20 21 20 18 18 19 21 22 22 23 23 24 24 24 23 23 24 24 25 25 26 26 27 28 29 29 29 29 28 28 27 26 26 25
32 29 28 28 27 25 24 22 20 21 21 19 18 16 14 14 15 17 18 18 16 15 14 13 14 15 15 11 9 12 13 12 13 11 10 12 15 16 16 16 16 14 13 16 20 22 21 19 17 17 17 19 20 19 16 14 16 21 23 24 25 25 25 25 25 24 24 25 25 26 27 28 29 30 30 32 32 32 32 32 32 32 31 31 30
29 31 28 27 26 25 25 23 21 22 20 19 19 17 13 12 12 13 16 17 17 16 13 12 12 13 13 10 10 13 13 13 14 11 8 8 11 14 14 12 12 13 14 16 18 18 18 16 14 13 14 16 17 18 16 16 17 19 20 21 24 26 26 26 27 26 26 27 28 29 30 30 31 32 33 34 34 34 35 35 35 36 36 35 35
25 30 30 27 26 26 26 24 22 22 20 19 20 18 15 13 12 13 14 15 16 16 13 12 11 12 12 11 12 15 15 15 15 12 10 9 10 11 11 9 9 10 11 12 12 13 13 11 10 9 10 12 13 14 16 17 17 17 17 18 22 24 23 23 26 27 26 26 26 28 29 29 30 31 33 35 35 36 37 37 38 38 39 39 38
25 30 31 27 27 26 25 25 23 21 21 20 20 17 16 15 13 13 13 15 17 16 14 13 12 13 15 15 16 17 17 16 16 15 14 14 14 14 13 11 10 9 8 8 6 5 5 4 4 4 4 4 3 4 7 8 10 12 14 17 20 21 18 16 19 24 24 22 20 22 24 24 24 26 28 29 30 32 33 34 35 36 38 39 40
26 30 31 28 27 26 25 24 23 22 22 21 19 17 16 16 15 13 13 15 17 17 16 16 16 16 19 20 20 19 18 17 17 16 16 16 15 15 14 13 12 10 9 8 8 7 5 5 5 4 3 3 4 3 1 1 3 5 8 10 12 14 15 14 16 20 20 19 18 20 23 23 23 24 25 24 24 26 28 28 28 29 31 32 35
27 30 30 28 27 26 25 25 23 23 23 22 20 18 16 16 15 14 13 16 19 19 18 19 18 18 20 21 21 20 19 17 16 16 16 15 13 12 11 10 9 8 7 6 6 6 5 4 4 2 1 2 2 2 3 4 6 8 9 10 10 10 10 12 15 17 17 17 18 18 19 21 21 21 22 22 22 24 25 24 23 24 25 26 29
27 30 29 27 27 26 25 25 24 22 22 22 21 19 16 15 14 14 15 17 19 19 19 20 20 20 20 20 20 20 18 17 16 15 15 14 13 11 10 9 7 6 6 5 5 4 4 4 3 3 2 3 3 3 4 6 7 9 10 11 11 10 10 11 13 14 14 16 17 15 16 20 20 20 21 21 21 22 23 23 22 23 24 24 25
28 30 29 27 27 25 24 24 23 22 21 22 22 20 18 16 15 15 17 19 19 19 19 20 20 20 19 18 19 19 18 16 15 14 13 12 12 11 10 9 8 6 5 4 3 2 2 3 3 3 3 4 5 5 5 6 7 9 9 9 10 10 11 13 14 14 15 17 17 14 14 17 18 20 21 21 21 23 23 23 24 24 23 23 24
26 28 28 26 25 25 24 23 23 22 21 21 21 20 19 18 17 18 19 20 21 21 21 20 20 20 19 18 19 19 18 16 14 12 11 9 9 9 8 8 7 6 5 4 3 1 2 2 3 3 4 5 6 7 8 8 8 9 8 9 9 9 11 12 14 14 13 13 13 11 12 15 16 18 20 19 20 22 22 22 22 22 21 22 22
24 25 27 26 24 24 24 24 24 24 22 21 21 21 20 20 19 20 21 22 22 22 21 20 20 20 19 18 17 16 16 15 13 11 9 7 6 6 6 5 5 4 3 3 2 2 2 2 2 3 4 5 6 7 8 8 8 8 8 9 9 9 10 10 11 12 12 12 12 10 11 12 11 13 15 16 17 17 16 17 18 18 20 21 21
25 24 26 27 24 23 24 23 24 25 24 22 22 23 23 22 22 23 23 22 22 20 20 20 19 18 18 16 14 14 13 12 10 8 6 5 5 5 4 4 4 3 3 3 2 1 0 1 2 2 3 3 3 3 5 6 6 7 7 7 8 9 10 10 10 12 13 11 9 8 8 8 9 10 12 14 14 14 13 14 16 18 19 20 20
27 25 26 28 27 25 24 23 22 23 23 21 21 22 23 22 22 24 24 24 22 20 19 19 16 14 13 12 11 11 10 9 7 6 4 3 4 4 3 2 1 2 3 3 3 4 4 3 2 2 3 3 3 4 5 6 7 9 9 9 8 8 9 10 11 11 8 5 5 10 12 11 12 13 13 11 9 10 11 13 15 16 17 17 16
Wind_Direction
190 185 184 181 175 171 169 171 171 169 168 168 167 166 169 171 172 172 170 169 173 189 182 176 184 186 181 172 163 157 149 147 146 144 144 147 148 148 148 141 135 132 124 121 123 121 118 117 117 115 114 113 113 112 107 106 105 103 103 101 98 97 96 95 96 93 94 96 92 91 90 87 84 80 80 83 80 72 67 69 71 71 72 76 76
193 188 184 178 170 165 163 162 159 159 162 166 167 169 173 175 175 173 174 176 185 203 191 174 169 170 181 181 170 162 157 154 151 150 151 153 152 149 147 135 125 120 120 128 129 127 126 127 129 129 126 123 121 116 114 115 108 106 107 109 111 108 101 96 97 95 90 90 91 93 91 89 87 84 83 83 79 73 70 72 71 67 66 75 76
197 192 185 178 173 168 162 157 153 148 151 157 161 165 172 176 175 173 176 177 178 191 184 174 168 169 180 182 174 166 161 157 154 154 153 153 152 150 142 131 125 126 135 141 129 126 130 131 133 132 132 128 124 123 124 123 119 119 119 120 119 109 101 94 97 99 94 92 95 98 96 94 92 89 87 84 80 77 76 74 71 67 66 73 76
202 196 189 180 175 173 169 164 159 154 154 159 162 167 176 180 178 175 174 172 169 172 175 182 183 176 177 178 173 168 163 161 159 157 155 156 155 148 140 136 137 144 151 142 125 119 111 114 122 122 127 131 131 132 130 127 126 126 126 128 119 107 106 102 100 101 99 95 94 96 95 93 92 93 92 86 84 82 79 78 74 72 72 76 78
205 199 192 183 179 180 179 175 172 168 167 170 170 174 183 180 176 175 169 164 162 164 175 190 191 181 175 172 170 168 165 163 163 160 157 160 157 147 143 143 145 148 149 140 134 130 108 101 118 128 131 135 142 141 135 133 131 129 130 129 120 115 116 109 101 102 102 98 93 89 85 83 84 92 95 89 87 85 81 81 79 77 75 76 75
205 201 193 187 188 189 188 185 182 177 177 179 178 181 183 177 175 175 167 165 167 170 182 187 184 180 171 167 168 168 168 166 166 164 161 161 156 150 147 148 149 147 148 147 147 145 122 99 108 135 147 146 145 136 130 134 135 134 131 121 119 120 119 112 109 106 102 98 97 95 88 84 83 88 94 92 88 84 82 82 81 81 79 76 74
206 202 195 193 198 198 192 191 190 186 187 186 184 186 185 182 183 182 172 169 171 170 179 183 175 172 166 164 168 169 170 169 168 168 165 161 157 157 155 153 155 157 159 160 161 155 131 104 91 116 139 143 138 135 135 135 137 137 131 125 122 121 116 115 115 111 105 103 103 103 99 94 90 86 90 92 90 86 86 83 80 82 83 81 78
208 205 201 201 206 204 194 192 198 200 198 191 188 193 192 185 183 185 179 170 170 167 171 178 167 161 161 164 170 172 173 172 172 171 166 162 158 161 162 160 164 169 171 175 189 170 133 120 104 105 116 119 120 128 132 130 133 131 127 126 120 116 115 114 115 113 113 112 104 99 99 96 95 92 89 89 89 87 86 85 81 81 81 80 76
210 208 208 209 210 206 196 193 201 207 205 196 187 188 187 180 170 176 184 174 170 165 160 162 151 149 155 161 169 173 175 175 177 176 169 165 162 164 168 170 174 176 181 189 205 172 141 138 132 119 114 111 116 125 125 121 119 118 117 118 120 121 122 118 116 116 116 114 109 105 101 97 98 97 93 90 87 85 84 84 82 80 79 76 74
211 210 211 213 212 207 199 195 202 208 208 201 186 182 183 180 167 170 181 175 170 165 155 147 135 139 147 153 166 174 179 181 182 182 179 175 169 169 174 177 183 186 190 197 202 172 156 156 148 139 135 126 129 135 129 119 114 112 110 110 115 116 118 122 119 115 111 111 110 101 88 84 87 92 96 98 94 90 87 84 81 78 77 75 76
210 210 210 211 211 207 202 197 202 208 209 203 188 183 182 178 170 169 173 171 171 165 154 141 129 133 141 148 161 173 180 184 186 188 187 186 182 180 180 183 190 192 194 199 196 177 170 174 163 155 161 154 150 152 148 155 152 134 120 117 117 110 111 117 114 109 110 113 105 89 75 68 72 82 95 100 97 92 86 82 78 75 73 72 74
208 209 208 208 209 209 206 201 202 207 210 206 196 191 183 174 171 172 172 163 159 159 153 141 127 122 128 140 156 171 180 182 189 195 195 198 197 192 190 190 190 188 190 196 189 169 169 182 176 172 182 186 191 188 180 193 194 181 171 167 154 129 119 113 106 103 106 113 108 96 85 71 70 84 97 100 97 92 86 80 75 72 72 73 73
208 208 207 207 209 210 209 205 203 205 210 211 204 195 182 175 174 177 176 160 151 154 153 141 125 115 115 118 131 153 176 185 190 202 204 204 203 203 204 196 188 185 187 190 182 162 158 176 183 188 203 215 216 204 202 215 215 210 202 189 184 176 156 133 115 104 105 110 109 106 104 86 78 92 103 104 101 96 91 86 80 73 71 73 68
207 207 208 208 210 210 209 207 206 206 207 208 205 193 181 180 179 177 174 163 156 157 157 146 126 119 119 110 108 121 148 178 191 219 224 212 207 215 220 200 190 189 191 191 183 169 160 173 190 198 210 224 229 227 230 236 233 232 223 196 195 200 187 161 140 124 112 111 109 109 112 102 90 97 107 109 105 99 92 85 83 80 74 73 71
207 207 208 207 209 211 210 208 207 205 200 198 200 194 183 185 186 179 170 161 157 160 164 160 139 125 119 117 106 104 109 122 166 216 241 229 208 214 217 196 193 196 196 199 198 187 177 181 194 202 211 228 245 254 251 247 238 237 235 219 213 208 196 181 165 152 130 118 116 115 120 123 116 112 116 116 107 95 79 74 81 87 81 77 81
209 208 208 208 209 211 210 208 206 203 200 198 198 195 188 187 189 185 175 162 156 161 167 168 158 144 125 100 85 124 177 137 128 137 247 251 213 210 211 193 195 201 201 204 212 210 196 193 206 213 220 234 253 267 267 261 250 239 240 239 232 211 193 189 178 167 155 137 131 131 133 149 155 142 133 126 116 102 75 77 90 99 103 103 103
212 208 209 210 210 210 211 211 208 205 204 204 200 195 192 190 188 187 186 176 166 166 168 171 174 167 153 137 123 196 198 145 142 127 227 226 206 212 219 202 198 203 206 209 215 216 204 199 210 218 225 232 241 271 279 266 253 240 244 245 241 217 184 176 179 171 161 151 145 154 158 163 167 159 149 133 119 116 102 101 104 107 117 124 124
213 210 208 209 209 210 214 216 212 206 204 205 200 196 195 193 190 190 194 191 178 170 170 177 186 182 168 154 147 199 171 146 144 132 183 199 201 206 209 200 199 201 207 213 211 207 202 201 211 216 223 233 238 268 292 270 248 245 248 225 207 180 139 140 146 136 127 118 116 154 167 158 146 142 137 119 113 117 118 117 114 116 127 130 119
212 212 211 209 209 212 216 216 211 204 201 201 197 196 198 195 192 194 198 199 188 176 175 179 189 193 191 185 188 202 172 160 160 164 152 190 195 191 193 192 198 202 207 213 208 202 201 204 213 218 223 236 249 265 286 272 227 200 203 173 147 127 116 114 111 108 105 95 92 119 149 154 140 131 130 124 119 116 118 119 112 109 119 115 104
212 212 212 210 211 214 213 210 206 200 197 197 195 195 198 196 194 197 202 204 200 189 183 183 190 197 201 209 232 189 176 174 172 163 137 140 168 179 191 189 196 205 204 202 198 198 206 214 222 227 231 240 249 260 266 221 173 159 153 145 136 130 123 116 112 112 109 102 100 111 127 133 130 131 131 125 116 107 105 110 105 104 112 110 103
212 212 214 213 212 210 204 202 199 195 193 193 195 195 195 195 195 199 205 207 208 202 193 192 197 199 197 199 183 164 173 180 174 164 146 148 155 159 178 177 186 196 193 188 190 196 207 220 226 227 236 241 238 237 204 162 153 147 142 138 136 134 129 128 131 134 128 118 113 113 118 126 131 129 123 114 109 109 111 115 116 113 112 108 101
213 212 214 213 208 202 198 198 196 194 194 192 193 195 194 195 196 199 207 211 211 211 207 205 204 200 199 196 172 161 165 169 173 169 153 150 153 150 167 169 175 187 189 189 193 197 201 218 228 229 232 225 208 186 162 153 151 148 143 140 138 136 136 145 153 153 147 142 134 123 125 135 137 126 119 121 120 120 118 116 118 114 108 106 100
217 213 210 206 200 196 195 197 196 195 198 197 196 197 196 196 197 201 209 214 215 217 217 217 211 203 205 210 197 186 185 186 184 177 164 153 147 147 168 175 173 180 189 194 198 197 200 217 225 224 211 186 170 163 160 156 155 155 152 150 151 152 154 157 163 165 163 160 148 136 138 142 134 128 127 127 127 126 126 124 123 119 113 106 97
215 208 201 197 195 195 195 197 198 199 202 203 203 202 200 200 201 203 209 214 217 221 220 221 217 208 208 218 221 216 209 203 193 186 181 171 159 150 160 169 166 173 185 192 200 202 207 212 207 200 188 167 160 160 161 162 165 169 173 175 178 177 173 167 168 172 171 166 152 140 140 137 129 133 131 130 136 140 144 148 143 137 126 114 101
209 203 196 193 195 197 198 198 200 204 205 204 203 203 201 201 203 204 209 212 216 221 221 223 223 216 214 220 229 227 217 211 201 194 189 172 158 149 155 163 148 144 174 183 183 188 204 210 200 190 187 170 164 164 167 173 177 183 187 183 180 179 177 177 176 175 172 167 159 150 147 145 144 147 146 147 155 153 151 154 150 142 133 121 115
205 202 197 196 197 197 198 198 201 205 206 204 201 200 200 202 205 207 210 213 216 219 220 224 226 220 218 222 230 226 217 214 206 197 191 177 164 155 149 145 131 138 155 178 180 174 191 208 210 203 195 184 178 177 182 193 195 190 186 180 177 176 175 176 172 168 166 165 166 165 162 161 162 163 163 165 169 162 151 151 149 145 141 133 128
204 203 199 196 196 196 196 196 198 201 202 202 202 202 204 206 207 209 211 212 213 215 218 221 221 218 218 222 227 223 215 214 212 205 200 191 180 168 158 142 122 142 144 168 187 189 194 204 210 217 218 205 198 199 202 205 201 191 185 184 183 180 176 176 170 162 160 160 160 163 166 168 170 170 170 169 170 171 165 159 156 152 154 155 146
202 198 196 194 194 194 194 194 196 198 200 202 205 207 207 207 207 208 210 211 211 213 217 219 218 218 218 220 222 220 218 218 215 212 209 202 192 180 170 162 151 146 158 168 181 198 209 211 211 220 226 221 217 214 210 207 203 196 193 191 190 187 181 173 170 165 161 160 159 161 165 169 171 173 173 173 174 175 173 170 172 173 176 182 183
202 194 192 194 195 195 195 195 197 199 200 204 207 207 206 206 207 209 211 211 210 211 215 217 218 219 218 218 220 222 222 222 220 217 213 206 196 188 181 175 164 152 161 186 188 196 208 217 219 222 221 217 220 217 209 206 205 204 200 195 193 193 186 177 175 174 168 167 165 163 167 170 174 177 176 176 175 176 179 180 182 184 187 194 200
199 194 194 196 197 198 197 196 198 198 199 202 206 207 206 207 210 213 213 211 208 207 211 214 215 215 215 215 219 222 223 224 223 217 211 207 201 192 188 185 178 170 165 162 195 204 205 214 222 225 219 212 214 215 209 204 206 211 209 201 198 196 190 184 181 182 177 174 172 169 170 172 173 175 173 175 176 178 183 185 187 187 186 193 200
196 195 195 196 197 199 198 198 197 196 197 200 204 207 208 209 211 213 213 210 208 205 208 214 214 212 211 213 216 217 219 222 218 214 211 210 206 197 192 190 190 188 177 162 172 210 208 214 219 220 223 213 208 209 207 203 206 213 211 206 204 200 197 194 191 192 188 184 182 177 177 174 171 171 171 173 176 178 184 186 188 188 187 194 204
195 194 195 197 198 198 199 199 196 193 194 195 198 203 207 208 210 211 211 209 208 209 211 215 215 213 212 212 214 214 213 214 210 209 212 214 211 204 198 193 193 200 190 176 158 195 205 216 219 216 220 215 207 207 207 204 206 211 212 212 210 207 206 204 202 201 199 199 200 196 195 192 190 193 191 190 188 186 189 191 191 193 193 199 211
195 193 195 197 197 198 198 199 195 192 192 191 193 198 202 206 210 212 211 209 209 212 214 216 213 212 213 212 212 210 209 210 207 208 213 216 213 207 201 196 197 205 202 192 176 165 195 210 216 216 219 215 210 209 208 206 206 209 211 212 214 215 215 214 215 215 215 215 215 214 216 219 222 223 222 220 217 213 212 211 211 214 216 223 234
196 193 194 196 197 198 197 197 194 192 193 192 193 196 198 204 210 211 211 211 211 211 213 216 211 209 213 212 207 203 203 205 204 206 212 212 211 208 203 201 204 211 213 206 195 179 189 203 210 216 220 218 215 213 212 211 211 212 215 218 220 220 220 221 224 225 225 225 225 225 227 231 236 238 238 238 237 236 233 231 230 231 233 239 245
196 193 194 195 197 197 197 197 196 194 196 196 196 197 199 203 207 208 210 212 211 210 212 214 210 210 213 209 204 201 199 200 201 202 206 207 210 212 210 209 211 215 219 218 212 201 196 201 209 216 218 218 219 217 216 216 216 219 223 227 229 227 225 227 229 231 233 233 234 235 236 240 244 247 248 249 247 246 244 242 241 241 242 244 248
194 193 193 193 194 195 197 198 197 196 197 199 199 198 200 201 201 201 205 209 210 210 212 213 211 213 213 207 205 203 197 198 202 200 198 203 210 217 219 219 220 221 222 223 223 218 208 204 210 216 218 219 220 219 219 219 220 225 230 233 236 236 234 233 234 236 237 239 242 243 244 247 250 253 255 256 256 255 254 252 250 249 250 251 252
193 192 191 190 191 194 197 196 194 195 198 200 201 199 198 200 199 200 202 205 209 211 213 216 214 214 213 210 209 206 198 197 201 201 201 200 206 218 225 226 226 226 228 227 225 223 220 216 212 213 215 218 219 219 221 222 223 227 232 235 238 241 241 240 241 242 241 243 246 248 250 252 254 257 258 259 260 260 260 260 259 257 256 256 256
191 191 191 191 191 193 195 194 194 198 199 198 198 196 197 199 199 200 201 204 210 214 217 218 216 214 211 211 211 207 200 195 193 198 205 200 201 215 223 224 225 228 232 231 226 222 223 223 216 211 212 215 217 218 222 225 228 230 232 236 240 243 244 245 246 247 247 248 250 252 255 256 258 260 262 263 264 264 264 264 263 262 260 260 259
191 192 192 190 191 194 195 192 194 199 198 196 195 194 196 201 204 205 205 208 212 218 223 220 218 216 210 208 204 193 192 193 189 193 203 201 202 211 214 216 223 228 227 223 219 216 217 217 215 212 212 214 215 218 224 229 233 236 236 238 241 244 245 247 250 252 252 253 255 256 258 260 262 262 263 265 265 265 266 266 265 264 263 262 261
191 192 191 190 192 195 193 188 188 193 196 198 194 189 190 198 206 207 208 211 214 219 224 217 216 216 210 208 196 179 183 194 191 187 186 186 191 196 199 207 218 220 211 206 208 209 211 211 211 211 212 215 217 219 225 230 232 237 240 241 244 250 252 252 255 258 258 259 260 261 261 261 262 264 265 265 265 265 265 266 266 266 264 263 262
192 188 188 192 193 192 189 185 185 188 192 195 188 180 180 185 189 192 196 204 211 216 216 206 205 208 204 200 182 173 183 192 185 177 166 166 180 186 188 197 206 204 200 200 201 202 205 208 210 209 210 215 218 218 222 228 232 238 243 243 248 257 262 261 263 263 263 264 266 266 267 267 267 268 268 267 268 268 268 267 267 267 267 265 263
197 187 187 192 191 187 185 184 186 186 186 188 184 179 179 180 178 179 187 199 208 210 204 191 188 188 181 172 166 170 180 178 165 154 144 142 155 163 163 166 176 182 185 187 193 199 203 205 209 215 219 224 229 229 233 243 251 259 262 258 257 263 267 270 274 275 273 273 273 275 278 279 277 276 275 274 274 273 271 271 271 271 271 269 267
199 189 187 191 189 187 186 184 187 186 184 185 185 184 186 187 188 188 191 200 201 197 188 176 168 165 162 159 161 165 164 155 146 137 131 128 129 131 129 128 131 134 139 138 141 165 179 166 155 170 196 214 231 234 241 256 270 279 281 275 271 271 273 276 280 282 283 284 285 286 288 289 289 289 287 286 286 284 282 281 280 279 277 275 273
194 187 187 189 187 187 186 185 187 187 184 185 187 189 190 192 196 198 197 198 191 182 176 169 159 156 156 154 152 153 148 144 141 137 131 125 123 123 121 120 119 117 121 120 114 117 125 119 111 107 97 83 80 82 62 321 307 310 305 293 284 280 279 275 273 279 289 292 290 287 288 291 293 292 293 295 298 298 297 297 299 298 293 287 284
186 182 185 186 184 184 183 185 187 187 185 185 187 189 189 190 194 197 196 191 182 175 172 169 163 160 159 155 150 147 143 141 141 139 137 132 128 125 121 118 114 110 110 109 106 110 112 112 115 103 23 16 44 40 346 319 308 306 303 299 298 294 286 280 277 282 290 289 285 286 290 293 292 291 295 300 301 299 297 300 305 305 300 296 292
177 176 178 178 177 177 178 181 183 183 183 185 187 187 186 184 186 188 186 181 174 169 167 167 166 164 163 160 155 148 145 144 144 142 142 140 137 134 131 129 123 111 103 93 88 89 81 79 86 79 40 358 360 358 333 317 307 304 300 297 301 301 296 290 285 283 283 283 286 290 291 294 296 296 299 304 304 298 292 291 290 287 285 287 286
169 170 170 169 167 166 167 171 174 174 175 178 181 181 179 178 178 178 175 169 164 160 157 158 158 157 157 156 152 147 144 143 142 139 139 141 140 137 133 132 130 123 117 105 87 67 43 37 38 36 16 346 338 333 325 319 311 308 307 303 303 300 296 292 288 285 283 284 288 286 281 291 299 298 299 305 305 300 296 293 292 290 289 289 289
157 157 157 156 155 152 152 156 160 161 160 165 171 172 174 177 175 169 163 159 155 153 149 147 146 144 144 144 144 143 141 139 137 137 138 141 144 139 133 129 126 123 119 110 98 73 30 15 2 354 340 330 326 320 319 318 314 312 309 305 304 300 296 294 293 294 293 292 297 290 274 282 295 294 294 299 300 297 298 299 299 301 303 304 304
138 137 139 140 140 140 141 143 147 148 146 150 159 162 166 172 172 166 161 156 153 151 146 144 144 142 140 140 140 143 144 141 138 138 141 147 149 143 138 138 140 138 125 112 101 78 42 7 343 331 320 316 317 315 318 322 321 319 314 310 310 304 300 300 296 297 303 304 306 302 279 279 292 297 298 303 302 299 299 301 304 307 308 308 308
124 122 125 128 127 128 131 133 136 138 137 139 147 153 159 165 167 165 162 154 148 145 143 141 140 139 139 138 137 139 142 143 144 144 146 153 154 148 148 158 169 172 159 155 175 184 22 343 339 342 336 335 336 336 346 352 352 353 349 342 331 313 306 306 300 303 313 314 315 326 316 303 311 316 316 316 310 303 302 305 310 311 309 309 310
117 115 116 118 116 114 116 121 126 130 133 135 141 146 149 153 155 155 153 147 137 133 134 131 127 127 131 131 129 127 129 135 144 147 141 140 144 143 151 174 206 246 252 255 256 258 266 279 312 358 23 39 43 43 36 29 25 24 22 15 3 344 328 320 313 313 321 318 323 336 333 325 326 330 330 325 310 303 307 310 312 313 312 313 316
Height
824 824 825 825 826 826 827 826 826 826 827 828 829 830 831 832 833 834 835 836 837 837 838 839 840 841 842 842 843 843 844 844 845 845 845 846 846 847 847 848 849 850 850 851 851 851 851 851 851 852 852 852 852 852 852 851 851 851 851 851 851 851 851 851 851 851 850 850 850 850 850 850 849 849 849 849 849 848 848 848 847 847 846 846 846
824 825 825 826 826 827 827 827 827 827 827 828 829 830 831 832 833 834 835 836 837 837 838 840 841 841 842 842 843 844 844 845 846 846 846 847 847 848 848 849 850 851 851 852 852 852 852 852 852 852 852 853 852 853 853 852 852 852 852 852 852 852 852 852 851 851 851 851 851 851 851 851 850 850 850 850 850 850 849 849 849 848 848 847 847
825 825 826 826 827 827 828 828 828 827 828 829 829 830 831 832 833 834 835 836 837 837 839 840 841 841 842 843 843 844 845 846 846 847 847 848 848 848 849 850 851 852 852 853 853 853 853 853 853 853 853 853 853 853 853 853 853 853 853 853 853 852 852 852 852 852 852 852 852 852 852 852 851 851 851 851 851 851 851 851 850 850 849 849 849
825 825 826 826 827 828 829 829 828 828 828 829 829 830 831 832 833 834 835 836 837 837 839 840 841 842 842 843 844 845 846 846 847 847 848 848 849 849 850 851 852 853 853 853 853 854 854 854 853 853 853 854 854 854 854 854 854 854 854 853 853 853 853 853 853 853 853 853 853 853 853 852 852 852 852 852 852 852 852 852 852 851 851 850 850
825 825 826 826 827 828 829 829 829 828 828 829 830 830 831 832 833 834 835 836 837 838 839 840 841 842 842 843 844 845 846 847 847 848 849 849 849 850 850 851 852 853 854 854 854 854 854 854 854 854 854 854 854 854 854 854 854 855 854 854 854 854 854 854 854 854 854 854 854 854 854 853 853 853 853 853 853 853 853 853 853 852 852 852 852
824 825 825 826 827 828 829 829 829 828 829 829 830 830 831 832 833 834 835 836 837 838 839 840 841 842 843 844 845 846 847 848 848 849 849 850 850 850 851 852 853 854 854 855 855 855 855 855 855 855 855 855 855 855 855 855 855 855 855 855 855 855 855 855 855 856 855 855 855 855 855 855 855 855 855 855 854 854 854 854 854 854 854 853 853
824 825 825 826 826 828 829 829 829 829 829 830 830 831 831 832 833 834 835 836 837 838 839 840 841 842 843 844 845 847 848 848 849 849 850 850 851 851 852 852 853 854 855 855 855 855 856 856 856 856 855 855 856 856 856 856 856 856 856 856 856 856 856 856 856 857 857 856 856 856 856 856 856 856 856 856 856 856 856 856 855 855 855 855 855
823 824 825 825 826 827 828 829 829 829 829 830 831 831 831 832 833 834 835 836 837 837 839 840 841 843 844 844 846 847 849 849 850 850 851 851 851 852 852 853 854 855 856 856 856 856 856 857 857 857 856 856 856 857 857 857 857 857 857 857 857 857 857 857 857 857 857 857 857 857 857 857 857 857 857 857 857 857 857 857 857 857 856 856 856
822 823 824 824 825 826 828 829 829 829 830 830 830 831 832 832 833 834 834 835 836 837 838 839 841 843 844 845 847 848 849 850 851 851 852 852 852 853 853 854 855 856 856 857 857 857 857 857 858 858 858 857 857 858 858 858 858 858 858 858 858 858 858 858 858 858 858 858 858 858 858 858 858 858 858 858 859 859 859 859 858 858 858 858 858
822 823 823 824 825 826 827 828 828 829 829 830 830 831 832 832 832 833 834 835 836 837 838 839 841 843 844 846 848 849 850 851 851 852 853 853 853 853 854 855 856 856 857 857 858 858 858 858 858 858 858 858 858 858 859 859 859 859 859 859 859 859 859 859 859 859 859 859 859 859 859 859 859 859 859 859 859 860 860 860 860 859 859 859 859
821 822 823 823 824 825 826 827 828 828 829 829 830 830 831 832 832 833 835 836 836 836 837 839 842 843 845 847 848 850 851 852 852 853 853 854 854 854 855 856 856 857 858 858 858 858 859 859 858 859 859 859 859 859 859 860 860 860 860 860 860 860 860 860 860 860 860 860 860 860 860 860 860 860 860 860 860 860 861 861 861 861 861 860 860
819 821 822 822 823 824 825 826 827 827 828 828 829 830 831 832 832 834 835 836 837 836 837 839 842 844 845 847 849 851 851 852 853 853 854 854 854 855 856 857 857 857 858 858 859 859 859 859 859 859 860 860 860 860 860 860 860 860 861 861 861 861 861 861 861 861 861 861 861 861 862 862 861 861 861 861 861 862 862 862 862 862 862 862 862
818 819 820 821 822 823 824 826 826 827 828 828 829 830 831 831 832 834 835 835 836 837 837 839 842 844 846 848 850 851 852 852 853 854 854 854 855 855 856 857 857 858 858 859 859 859 859 860 859 860 860 860 860 860 860 860 860 860 861 861 861 862 862 862 862 862 862 862 862 862 863 863 863 862 862 863 863 863 863 863 863 863 863 863 862
817 818 819 820 821 822 823 824 826 826 827 828 829 830 830 831 832 833 835 835 835 836 837 838 841 844 845 848 851 852 852 852 853 854 854 854 854 855 855 856 857 858 858 859 859 860 860 860 860 860 860 860 860 861 861 860 860 860 861 861 861 862 862 862 862 863 862 863 863 863 864 864 864 864 864 864 864 864 864 864 864 864 864 864 863
816 818 818 820 820 821 822 823 825 825 826 827 828 829 830 831 832 832 834 835 836 836 836 837 839 843 846 849 851 852 853 853 853 853 854 854 854 854 855 856 857 857 858 859 859 860 860 860 860 861 861 861 861 861 861 861 860 860 861 861 861 862 862 862 862 863 863 863 864 864 865 865 865 865 865 865 865 865 865 865 865 865 865 865 865
816 817 818 819 820 820 821 822 824 825 825 826 827 827 828 830 831 831 832 834 835 836 837 837 838 841 846 850 852 853 854 853 852 853 854 854 854 854 855 856 856 857 858 859 859 860 860 860 861 861 861 861 861 861 861 861 861 861 861 861 861 861 862 862 863 864 864 864 864 865 865 866 866 866 866 866 866 866 866 866 866 866 866 866 866
816 817 818 819 819 820 821 822 823 824 825 826 826 826 827 828 829 830 831 832 833 834 836 837 838 839 842 847 851 853 853 852 852 854 854 854 854 855 855 856 856 857 858 858 859 859 860 860 861 861 861 861 861 861 861 861 861 861 861 861 861 861 861 862 863 864 864 865 865 865 866 866 866 867 867 867 867 867 867 867 867 867 867 867 867
816 817 818 819 819 820 820 821 822 823 824 825 826 826 826 828 828 829 831 831 831 833 835 837 839 840 841 843 846 847 848 850 853 855 855 854 855 855 856 856 857 857 858 858 859 859 860 860 861 861 861 862 862 862 862 862 862 862 862 861 862 862 862 863 863 864 865 865 865 865 866 866 867 867 868 868 868 868 868 868 868 868 868 868 868
815 817 817 818 819 819 820 820 821 823 823 824 825 825 826 827 828 829 831 831 831 832 834 836 838 840 842 843 843 843 844 847 850 853 855 855 855 855 856 856 857 857 858 858 859 859 859 860 860 861 861 862 862 862 862 862 862 862 862 863 863 863 863 864 865 865 866 866 866 866 866 867 867 868 868 869 869 869 869 869 869 869 869 869 868
815 816 816 817 818 818 819 819 820 822 823 823 824 825 825 827 828 830 830 831 831 832 833 835 837 839 841 842 843 843 844 845 847 849 852 854 855 855 856 857 857 857 857 858 858 859 859 860 860 861 861 862 862 862 862 862 863 863 864 864 864 864 865 865 866 866 867 867 867 867 867 867 868 868 869 869 869 870 870 870 870 870 870 869 869
814 815 815 816 816 817 818 819 820 821 822 823 823 824 825 826 827 829 830 830 831 832 833 834 835 838 840 841 842 843 845 846 847 848 850 852 854 855 855 856 857 857 857 857 858 858 859 859 860 860 861 861 862 862 862 863 863 864 865 865 865 866 866 866 867 867 868 868 868 868 868 868 869 869 869 870 870 871 871 871 871 871 870 870 870
813 813 814 815 815 816 817 818 819 821 821 822 823 823 824 825 826 828 829 830 831 832 833 834 835 837 839 840 841 842 844 845 846 847 848 851 853 854 855 856 856 857 857 857 858 858 858 859 859 860 860 861 862 862 863 863 864 865 866 866 866 866 867 867 867 868 868 869 869 869 869 869 870 870 870 870 871 871 871 871 871 871 871 871 871
812 812 813 814 814 815 816 817 818 820 821 821 822 823 824 825 826 827 828 829 830 831 832 834 835 837 838 838 839 840 841 843 844 845 846 848 851 854 855 856 856 857 857 858 858 858 858 859 859 860 860 861 861 862 863 864 865 866 866 867 867 867 867 868 868 868 869 869 869 870 870 870 870 870 870 870 871 871 872 872 872 872 872 872 872
810 811 811 812 813 814 815 816 817 818 820 821 822 823 824 824 825 826 828 829 830 831 832 833 834 836 837 838 838 839 840 841 842 844 845 846 849 852 855 856 857 858 858 858 859 859 859 859 860 860 861 861 862 863 864 865 865 866 867 867 867 867 868 868 868 869 869 869 870 870 870 870 870 870 870 871 871 871 872 872 872 872 872 872 872
809 809 810 811 812 813 814 815 816 818 819 820 821 822 823 824 825 826 827 828 829 830 831 832 833 835 836 837 838 839 840 841 843 844 845 847 849 851 854 856 857 858 859 859 860 860 860 860 861 861 862 862 863 863 864 865 866 866 867 867 867 868 868 868 869 869 869 869 870 870 870 870 871 871 871 871 871 871 872 872 873 873 873 872 872
808 808 809 810 811 812 813 814 815 816 818 819 820 821 822 823 824 826 827 828 829 830 830 831 833 834 836 837 838 839 840 841 843 844 844 846 848 850 853 856 858 859 859 860 860 860 861 861 861 862 862 863 863 864 865 865 866 866 867 867 867 868 868 868 869 869 869 870 870 870 870 870 871 871 871 871 871 871 872 872 873 873 873 873 873
807 807 808 809 810 811 812 813 814 815 816 818 819 820 821 823 824 825 826 828 829 829 830 831 832 834 835 837 838 839 840 841 842 843 844 845 847 848 850 853 857 860 859 860 860 860 861 861 861 862 862 863 864 864 865 866 866 867 867 867 867 868 868 869 869 869 869 870 870 870 870 870 871 871 871 871 871 872 872 872 872 873 873 873 873
806 807 808 808 809 810 811 812 813 814 815 816 817 819 820 821 823 824 826 827 828 829 830 831 832 833 835 836 837 838 839 840 841 843 844 845 846 847 848 849 853 858 860 860 860 860 860 860 861 861 862 863 864 864 865 866 866 867 867 867 868 868 868 869 869 869 870 870 870 870 870 870 871 871 871 871 871 871 872 872 872 872 873 873 874
805 806 807 808 808 809 810 811 812 813 814 815 816 818 819 820 822 823 825 826 827 828 829 830 831 833 834 835 837 838 838 840 841 842 843 845 846 847 848 848 849 853 857 859 859 859 859 859 860 860 861 862 863 864 865 865 866 867 867 867 868 868 869 869 870 870 870 870 870 870 870 871 871 871 871 871 871 871 871 872 872 872 872 873 873
804 805 806 807 807 808 809 810 811 812 813 814 816 817 818 820 821 822 824 825 826 827 828 829 830 832 833 835 836 837 838 839 840 841 842 844 846 847 848 849 849 850 852 856 858 858 858 858 859 859 860 861 862 863 864 865 866 867 867 868 868 869 869 870 870 870 870 870 871 871 871 871 871 871 872 872 872 872 872 871 871 871 871 871 872
802 803 804 805 806 807 808 809 810 811 812 813 815 816 817 819 820 822 823 824 826 827 827 829 829 831 832 834 835 836 837 838 839 840 842 843 845 847 848 849 850 851 851 853 856 856 856 857 858 859 860 861 862 863 864 865 866 866 867 868 868 869 869 870 870 870 871 871 871 871 871 871 872 872 872 872 872 872 872 871 871 871 870 870 871
800 801 803 804 805 806 807 808 809 810 811 812 814 815 816 818 820 821 823 824 825 826 827 828 829 830 832 833 834 835 836 837 838 840 841 843 845 846 848 849 850 852 852 852 854 854 855 857 857 858 859 860 862 862 863 864 865 866 867 867 868 869 869 870 870 870 871 871 871 871 871 871 871 872 872 872 872 871 871 871 871 870 870 870 870
799 800 801 803 804 806 807 808 809 809 810 811 813 814 815 817 819 820 822 823 824 826 826 827 828 830 831 832 834 835 836 837 838 839 841 842 844 845 847 849 850 851 852 852 853 854 855 857 857 858 859 860 861 862 863 864 865 865 866 867 868 868 869 869 870 870 870 870 870 870 870 871 871 871 871 871 871 871 870 870 870 869 869 869 869
798 799 801 803 804 806 807 808 808 809 810 811 812 813 815 816 818 819 821 822 824 825 826 827 828 829 831 832 833 834 835 836 837 838 840 841 843 845 847 848 850 850 851 852 853 854 855 856 857 858 858 859 860 861 862 863 864 865 865 866 867 867 868 868 869 869 869 869 869 870 870 870 870 871 871 870 870 870 869 869 869 869 868 868 868
798 798 800 802 804 805 807 808 808 809 810 811 812 813 814 816 817 818 820 821 823 824 825 826 828 829 830 831 833 834 835 836 836 837 839 841 843 845 846 848 848 849 850 851 852 852 854 855 856 856 857 858 859 860 861 863 864 864 865 866 866 867 867 868 868 868 868 869 869 869 869 870 870 870 870 870 869 869 868 868 868 868 868 868 868
797 798 799 801 803 805 806 807 808 808 809 810 811 813 814 815 816 817 819 820 822 823 825 826 828 829 830 831 832 834 834 835 836 837 839 841 842 843 845 846 847 848 849 850 850 851 852 853 854 855 856 857 858 860 861 862 863 864 864 865 865 866 866 867 867 867 868 868 868 868 869 869 869 869 869 869 868 868 868 867 867 867 867 867 867
796 798 799 800 802 803 804 806 807 808 809 810 811 812 814 815 816 817 818 819 821 823 824 826 827 829 830 831 832 834 835 835 836 837 839 840 841 842 843 844 845 846 848 849 849 850 851 852 853 854 855 857 858 859 860 861 862 862 863 864 864 865 865 865 865 866 866 867 867 867 867 867 867 867 867 867 867 866 866 866 866 866 866 866 865
795 797 798 799 800 802 803 804 806 808 808 810 811 812 813 814 815 816 818 819 821 822 824 825 827 828 829 831 832 833 835 835 836 837 838 839 840 841 841 842 844 845 846 847 848 849 850 851 852 853 854 855 856 857 858 859 860 861 862 863 863 863 864 863 863 864 865 865 865 865 865 865 865 865 865 865 865 865 864 864 864 864 864 864 864
794 796 797 798 799 800 801 803 806 807 808 809 810 812 813 814 815 816 817 819 820 822 823 825 826 827 828 829 831 833 835 836 836 837 837 838 839 840 840 841 842 843 844 845 846 847 849 850 851 852 853 854 855 856 857 858 859 860 861 861 861 861 861 861 861 862 863 864 863 863 863 863 863 863 862 862 862 862 862 862 862 862 862 862 862
792 794 796 797 797 799 800 802 805 807 808 809 810 811 812 813 814 815 816 818 820 821 822 823 825 826 828 829 831 832 834 836 837 837 837 837 838 838 839 840 841 842 843 844 845 847 848 850 850 851 852 853 854 855 857 857 858 858 858 859 859 859 859 860 860 861 862 862 861 861 860 860 860 860 859 859 858 858 859 859 858 858 858 859 859
792 792 795 796 796 798 799 801 804 805 807 808 810 811 811 812 813 814 816 818 819 820 821 823 824 826 827 829 830 831 834 836 837 837 837 837 837 838 839 840 840 841 843 844 845 847 848 849 850 850 851 852 853 854 855 855 856 856 857 858 858 857 858 858 858 860 860 859 859 858 857 857 857 857 856 855 855 855 855 855 855 854 854 855 855
793 792 794 796 796 797 799 800 802 805 806 808 809 810 811 812 813 814 816 817 818 820 821 822 823 825 826 828 829 831 834 835 836 837 837 837 838 838 839 840 841 842 843 845 846 847 848 849 850 851 852 852 853 854 855 855 856 856 857 857 857 856 857 857 856 857 857 857 856 855 855 855 854 853 852 852 851 852 852 851 851 851 851 851 851
793 792 793 794 795 796 798 799 802 804 806 807 808 809 810 811 813 814 815 817 818 819 821 822 823 824 826 828 829 831 833 834 835 836 837 838 838 839 840 841 842 843 844 845 846 847 849 850 851 852 853 853 854 855 855 856 856 857 857 857 856 856 857 857 856 855 855 855 855 854 853 853 852 850 850 849 849 848 848 847 847 848 848 848 848
791 791 792 794 795 796 798 799 801 803 805 806 808 809 810 811 812 814 815 816 817 819 821 822 823 825 826 828 829 831 833 834 835 836 837 838 839 840 841 842 843 844 845 846 847 848 849 850 851 851 852 853 854 854 855 855 855 856 856 856 856 856 856 857 856 854 854 854 854 852 852 852 851 849 848 848 847 846 845 844 844 844 844 844 845
789 790 791 793 794 795 797 799 801 803 804 806 807 809 810 811 812 813 814 816 817 819 821 823 824 826 827 828 830 831 833 834 835 836 837 838 839 840 841 842 843 844 845 846 847 848 849 850 851 851 852 852 853 853 854 854 854 854 854 854 854 854 854 854 853 853 853 853 852 851 850 851 850 848 847 847 847 845 844 843 842 842 842 842 842
788 788 790 792 793 795 797 799 801 802 803 805 807 808 810 811 812 813 814 816 818 820 821 823 824 826 827 829 830 831 833 834 835 836 837 838 839 840 841 842 843 844 845 846 848 848 849 850 851 851 851 851 852 852 853 853 853 852 853 853 852 852 852 852 851 851 851 851 850 849 848 848 848 845 844 845 845 844 842 841 841 840 840 840 839
787 787 789 792 793 795 797 798 800 802 803 805 807 808 810 811 812 813 814 816 818 820 822 824 825 827 828 829 830 832 833 835 836 836 837 838 839 840 841 843 844 845 846 847 848 849 849 849 850 850 851 851 851 852 852 852 852 852 852 851 851 851 850 850 849 849 849 849 849 848 846 845 845 843 842 842 842 841 840 839 838 838 838 837 836
786 787 789 792 794 795 797 798 799 801 803 804 806 808 810 810 812 813 814 816 818 820 822 824 826 827 829 830 831 832 833 835 836 837 838 839 839 840 841 842 844 845 846 847 848 848 849 849 849 850 850 851 851 851 851 851 851 851 851 850 850 849 849 848 848 847 847 847 847 847 844 843 843 842 841 841 840 838 838 837 836 835 834 834 833
788 789 790 792 795 796 797 799 800 801 803 805 806 808 809 810 811 813 815 816 818 821 823 825 827 828 829 831 832 833 834 834 835 837 838 839 839 840 841 842 843 844 845 846 847 848 848 849 849 849 850 850 850 850 850 850 850 850 849 849 849 848 848 847 847 846 846 846 846 845 843 842 842 841 840 839 838 837 837 836 835 834 832 831 831
790 792 792 793 796 798 798 800 801 801 803 806 807 808 809 811 811 813 815 817 819 821 823 825 827 828 829 831 832 833 834 834 835 836 838 838 839 840 841 842 843 844 845 846 847 847 848 848 849 849 850 850 850 850 849 849 849 849 848 848 848 847 846 846 846 845 845 845 844 843 842 841 841 840 839 838 837 836 835 835 834 832 831 830 829
792 795 796 795 797 799 801 802 803 803 804 807 809 810 811 812 813 814 815 817 820 823 825 826 828 830 830 832 833 834 834 835 836 837 838 838 839 840 841 842 843 844 845 846 846 846 847 847 848 848 849 849 849 849 849 849 848 848 848 847 847 846 846 845 845 845 845 845 844 843 842 841 841 840 839 838 836 835 834 834 833 832 831 830 829